When you browse on this site, cookies collect data to enhance your experience and personalize the content and advertising you see.
Visit our Privacy Policy to learn more. By continuing to use the site, you agree to this use of cookies and data.
  • In Österreich
  • Länderverzeichnis
  • Für 7 Tage
  • Wassertemperatur
  • Satellitenkarten
  • Wetterkarte
  • News
  • Widgets
  • user-avatar
    Anmelden

    Stündliche Wetter Roli

    Heute, 21 Januar, Montag

    Zeit Temperatur Niederschläge Wind Luftdruck Luftfeuchtigkeit
    00:00 -8°C° 0 mm 6 m/S 755 mmHg 39%
    01:00 -8°C° 0 mm 6 m/S 756 mmHg 38%
    02:00 -9°C° 0 mm 6 m/S 757 mmHg 36%
    03:00 -9°C° 0 mm 6 m/S 758 mmHg 34%
    04:00 -10°C° 0 mm 6 m/S 758 mmHg 33%
    05:00 -10°C° 0 mm 6 m/S 759 mmHg 32%
    06:00 -10°C° 0 mm 6 m/S 760 mmHg 31%
    07:00 -11°C° 0 mm 6 m/S 760 mmHg 30%
    08:00 -10°C° 0 mm 5 m/S 761 mmHg 28%
    09:00 -10°C° 0 mm 5 m/S 762 mmHg 26%
    10:00 -8°C° 0 mm 5 m/S 763 mmHg 23%
    11:00 -7°C° 0 mm 5 m/S 763 mmHg 21%
    12:00 -6°C° 0 mm 5 m/S 763 mmHg 19%
    13:00 -5°C° 0 mm 5 m/S 763 mmHg 17%
    14:00 -4°C° 0 mm 5 m/S 763 mmHg 17%
    15:00 -3°C° 0 mm 4 m/S 763 mmHg 16%
    16:00 -2°C° 0 mm 4 m/S 763 mmHg 16%
    17:00 -2°C° 0 mm 3 m/S 764 mmHg 18%
    18:00 -3°C° 0 mm 2 m/S 764 mmHg 20%
    19:00 -1°C° 0 mm 1 m/S 765 mmHg 22%
    20:00 -2°C° 0 mm 1 m/S 766 mmHg 23%
    21:00 -2°C° 0 mm 1 m/S 766 mmHg 24%
    22:00 -4°C° 0 mm 2 m/S 766 mmHg 25%
    23:00 -4°C° 0 mm 2 m/S 767 mmHg 27%

    Morgen, 22 Januar, Dienstag

    Zeit Temperatur Niederschläge Wind Luftdruck Luftfeuchtigkeit
    00:00 -4°C° 0 mm 2 m/S 767 mmHg 28%
    01:00 -5°C° 0 mm 2 m/S 767 mmHg 30%
    02:00 -5°C° 0 mm 2 m/S 767 mmHg 30%
    03:00 -5°C° 0 mm 2 m/S 768 mmHg 30%
    04:00 -5°C° 0 mm 2 m/S 768 mmHg 30%
    05:00 -5°C° 0 mm 2 m/S 768 mmHg 31%
    06:00 -5°C° 0 mm 2 m/S 768 mmHg 32%
    07:00 -3°C° 0 mm 1 m/S 769 mmHg 32%
    08:00 -2°C° 0 mm 1 m/S 769 mmHg 29%
    09:00 -3°C° 0 mm 2 m/S 770 mmHg 27%
    10:00 -2°C° 0 mm 2 m/S 770 mmHg 24%
    11:00 -1°C° 0 mm 2 m/S 770 mmHg 22%
    12:00 +2°C° 0 mm 2 m/S 769 mmHg 20%
    13:00 +3°C° 0 mm 2 m/S 768 mmHg 18%
    14:00 +3°C° 0 mm 2 m/S 768 mmHg 20%
    15:00 +3°C° 0 mm 2 m/S 767 mmHg 22%
    16:00 +3°C° 0 mm 2 m/S 767 mmHg 24%
    17:00 +2°C° 0 mm 2 m/S 767 mmHg 28%
    18:00 +1°C° 0 mm 2 m/S 767 mmHg 33%
    19:00 -2°C° 0 mm 2 m/S 767 mmHg 37%
    20:00 -2°C° 0 mm 2 m/S 767 mmHg 38%
    21:00 -2°C° 0 mm 2 m/S 767 mmHg 38%
    22:00 -2°C° 0 mm 2 m/S 767 mmHg 38%
    23:00 -2°C° 0 mm 2 m/S 766 mmHg 46%

    übermorgen, 23 Januar, Mittwoch

    Zeit Temperatur Niederschläge Wind Luftdruck Luftfeuchtigkeit
    00:00 -2°C° 0 mm 2 m/S 766 mmHg 53%
    01:00 -1°C° 0 mm 2 m/S 765 mmHg 60%
    02:00 -1°C° 0 mm 2 m/S 765 mmHg 70%
    03:00 +1°C° 0 mm 2 m/S 764 mmHg 79%
    04:00 +1°C° 0 mm 2 m/S 763 mmHg 89%
    05:00 +2°C° 0 mm 2 m/S 763 mmHg 91%
    06:00 +2°C° 0 mm 3 m/S 762 mmHg 93%
    07:00 +2°C° 0 mm 3 m/S 762 mmHg 95%
    08:00 +3°C° 0 mm 5 m/S 761 mmHg 91%
    09:00 +7°C° 0 mm 6 m/S 760 mmHg 88%
    10:00 +9°C° 0 mm 7 m/S 759 mmHg 85%
    11:00 +11°C° 0 mm 7 m/S 758 mmHg 82%
    12:00 +12°C° 0 mm 8 m/S 758 mmHg 78%
    13:00 +15°C° 0 mm 8 m/S 757 mmHg 75%
    14:00 +15°C° 0 mm 7 m/S 756 mmHg 79%
    15:00 +14°C° 0 mm 7 m/S 754 mmHg 82%
    16:00 +14°C° 0 mm 6 m/S 753 mmHg 86%
    17:00 +14°C° 0 mm 6 m/S 753 mmHg 88%
    18:00 +14°C° 0 mm 6 m/S 752 mmHg 90%
    19:00 +13°C° 0 mm 6 m/S 751 mmHg 93%
    20:00 +14°C° 0 mm 6 m/S 750 mmHg 93%
    21:00 +14°C° 0 mm 6 m/S 749 mmHg 92%
    22:00 +14°C° 0 mm 7 m/S 749 mmHg 92%
    23:00 +15°C° 0.6 mm 7 m/S 747 mmHg 90%

    24 Januar, Donnerstag

    Zeit Temperatur Niederschläge Wind Luftdruck Luftfeuchtigkeit
    00:00 +15°C° 0.6 mm 8 m/S 746 mmHg 89%
    01:00 +16°C° 0.6 mm 8 m/S 745 mmHg 88%
    02:00 +16°C° 3.3 mm 7 m/S 744 mmHg 90%
    03:00 +16°C° 3.3 mm 6 m/S 743 mmHg 93%
    04:00 +16°C° 3.3 mm 5 m/S 742 mmHg 95%
    05:00 +15°C° 3.2 mm 5 m/S 742 mmHg 93%
    06:00 +13°C° 3.2 mm 5 m/S 743 mmHg 90%
    07:00 +12°C° 3.2 mm 5 m/S 743 mmHg 88%
    08:00 +11°C° 0.2 mm 4 m/S 744 mmHg 86%
    09:00 +10°C° 0.2 mm 4 m/S 745 mmHg 84%
    10:00 +8°C° 0.2 mm 4 m/S 746 mmHg 81%
    11:00 +7°C° 0 mm 4 m/S 746 mmHg 78%
    12:00 +7°C° 0 mm 4 m/S 746 mmHg 74%
    13:00 +7°C° 0 mm 4 m/S 746 mmHg 71%
    14:00 +7°C° 0 mm 4 m/S 747 mmHg 67%
    15:00 +8°C° 0 mm 4 m/S 747 mmHg 63%
    16:00 +10°C° 0 mm 4 m/S 747 mmHg 59%
    17:00 +7°C° 0 mm 4 m/S 748 mmHg 59%
    18:00 +6°C° 0 mm 4 m/S 749 mmHg 59%
    19:00 +5°C° 0 mm 4 m/S 750 mmHg 59%
    20:00 +4°C° 0 mm 3 m/S 751 mmHg 60%
    21:00 +3°C° 0 mm 3 m/S 751 mmHg 61%
    22:00 +2°C° 0 mm 3 m/S 752 mmHg 62%
    23:00 +2°C° 0 mm 2 m/S 752 mmHg 63%

    25 Januar, Freitag

    Zeit Temperatur Niederschläge Wind Luftdruck Luftfeuchtigkeit
    00:00 +2°C° 0 mm 2 m/S 752 mmHg 63%
    01:00 +2°C° 0 mm 1 m/S 752 mmHg 64%
    02:00 +2°C° 0 mm 1 m/S 752 mmHg 65%
    03:00 +1°C° 0 mm 1 m/S 752 mmHg 65%
    04:00 +1°C° 0 mm 1 m/S 752 mmHg 66%
    05:00 +1°C° 0 mm 1 m/S 751 mmHg 66%
    06:00 -1°C° 0 mm 2 m/S 751 mmHg 66%
    07:00 -1°C° 0 mm 3 m/S 751 mmHg 67%
    08:00 0°C° 0 mm 4 m/S 750 mmHg 64%
    09:00 +1°C° 0 mm 5 m/S 750 mmHg 61%
    10:00 +3°C° 0 mm 7 m/S 749 mmHg 57%
    11:00 +4°C° 0 mm 7 m/S 749 mmHg 57%
    12:00 +5°C° 0 mm 8 m/S 749 mmHg 56%
    13:00 +5°C° 0 mm 8 m/S 748 mmHg 56%
    14:00 +2°C° 0 mm 9 m/S 749 mmHg 45%
    15:00 0°C° 0 mm 9 m/S 750 mmHg 34%
    16:00 -3°C° 0 mm 9 m/S 751 mmHg 23%
    17:00 -5°C° 0 mm 8 m/S 753 mmHg 24%
    18:00 -7°C° 0 mm 8 m/S 754 mmHg 26%
    19:00 -9°C° 0 mm 7 m/S 756 mmHg 27%
    20:00 -11°C° 0 mm 7 m/S 757 mmHg 28%
    21:00 -10°C° 0 mm 6 m/S 757 mmHg 28%
    22:00 -11°C° 0 mm 6 m/S 758 mmHg 28%
    23:00 -12°C° 0 mm 6 m/S 758 mmHg 28%

    26 Januar, Samstag

    Zeit Temperatur Niederschläge Wind Luftdruck Luftfeuchtigkeit
    00:00 -12°C° 0 mm 5 m/S 759 mmHg 27%
    01:00 -12°C° 0 mm 5 m/S 759 mmHg 26%
    02:00 -12°C° 0 mm 5 m/S 759 mmHg 26%
    03:00 -12°C° 0 mm 5 m/S 759 mmHg 25%
    04:00 -12°C° 0 mm 4 m/S 760 mmHg 25%
    05:00 -12°C° 0 mm 4 m/S 760 mmHg 24%
    06:00 -12°C° 0 mm 3 m/S 760 mmHg 24%
    07:00 -12°C° 0 mm 3 m/S 760 mmHg 24%
    08:00 -10°C° 0 mm 3 m/S 760 mmHg 22%
    09:00 -8°C° 0 mm 2 m/S 761 mmHg 20%
    10:00 -7°C° 0 mm 2 m/S 761 mmHg 17%
    11:00 -5°C° 0 mm 2 m/S 760 mmHg 16%
    12:00 -5°C° 0 mm 3 m/S 759 mmHg 14%
    13:00 -2°C° 0 mm 3 m/S 758 mmHg 13%
    14:00 -2°C° 0 mm 3 m/S 757 mmHg 13%
    15:00 -1°C° 0 mm 3 m/S 757 mmHg 14%
    16:00 -1°C° 0 mm 3 m/S 756 mmHg 15%
    17:00 -1°C° 0 mm 3 m/S 756 mmHg 19%
    18:00 -2°C° 0 mm 2 m/S 756 mmHg 24%
    19:00 -2°C° 0 mm 2 m/S 756 mmHg 29%
    20:00 -2°C° 0 mm 2 m/S 756 mmHg 31%
    21:00 -2°C° 0 mm 2 m/S 755 mmHg 33%
    22:00 -2°C° 0 mm 3 m/S 755 mmHg 34%
    23:00 -2°C° 0 mm 3 m/S 754 mmHg 37%
    Mehr zeigen